Location: Dannhausen
(51.8650°N, 10.1026°E)
Time: 17:04:19
(UTC+00:00)

Cosmos 2221 - Pass Details

Date: 09 April 2020
Orbit: 592 x 616 km, 82.5° (Epoch: 02 June)

Event Time Altitude Azimuth Distance (km) Brightness Sun altitude
Exits shadow 21:46:36 45° 29° (NNE) 848 3.4 -26.8°
Drops below altitude 10° 21:49:44 10° 15° (NNE) 1,982 5.7 -27.0°
Sets 21:51:57 0° 13° (NNE) 2,888 6.7 -27.2°
